FW1411 Weather Reports


Display with metric or nautical units.
time (UTC)temp
F
wind
direction
speed
MPH
gust
MPH
rain 1hr
in
rain 24hr
in
rain mn
in
humidity
%
barometer
mb
20260906091055 73 0.0 0.0 0.00 0.17 0.00 95 1011.9
20260906090555 73 0.0 0.0 0.00 0.17 0.00 95 1011.9
20260906090108 73 0.0 0.0 0.00 0.17 0.00 95 1011.8
20260906085556 73 0.0 0.0 0.00 0.17 0.00 94 1011.7
20260906085055 73 0.0 0.0 0.00 0.17 0.00 94 1011.6
20260906084608 73 0.0 0.0 0.00 0.17 0.00 94 1011.6
20260906084058 73 0.0 0.0 0.00 0.17 0.00 94 1011.6
20260906083554 73 0.0 0.0 0.00 0.17 0.00 94 1011.6
20260906083105 73 0.0 0.0 0.00 0.17 0.00 95 1011.5
20260906082555 72 0.0 0.0 0.00 0.17 0.00 94 1011.4
20260906082056 73 0.0 0.0 0.00 0.17 0.00 94 1011.5
20260906081606 73 0.0 0.0 0.00 0.17 0.00 94 1011.5
20260906081054 73 0.0 0.0 0.00 0.17 0.00 94 1011.5
20260906080555 73 0.0 0.0 0.00 0.17 0.00 94 1011.6
20260906080106 73 0.0 0.0 0.00 0.17 0.00 94 1011.6
20260906075554 73 0.0 0.0 0.00 0.17 0.00 94 1011.5
20260906075057 73 0.0 0.0 0.00 0.17 0.00 94 1011.5
20260906074613 73 0.0 0.0 0.00 0.17 0.00 94 1011.4
20260906074055 73 0.0 0.0 0.00 0.17 0.00 94 1011.4
20260906073554 73 0.0 0.0 0.00 0.17 0.00 94 1011.5
20260906073105 73 0.0 0.0 0.00 0.17 0.00 94 1011.5
20260906072555 73 0.0 0.0 0.00 0.17 0.00 94 1011.5
20260906072054 73 0.0 0.0 0.00 0.17 0.00 94 1011.5
20260906071607 73 0.0 0.0 0.00 0.17 0.00 94 1011.6
20260906071057 73 0.0 0.0 0.00 0.17 0.00 94 1011.7
20260906070555 73 0.0 0.0 0.00 0.17 0.00 94 1011.7
20260906070111 73 0.0 0.0 0.00 0.17 0.00 94 1011.6
20260906065555 73 0.0 0.0 0.00 0.17 0.00 94 1011.7
20260906065138 73 0.0 0.0 0.00 0.17 0.00 94 1011.6
20260906064607 73 0.0 0.0 0.00 0.17 0.00 94 1011.6
20260906064055 73 0.0 0.0 0.00 0.17 0.00 94 1011.8
20260906063554 73 0.0 0.0 0.00 0.17 0.00 94 1011.8
20260906063112 73 0.0 0.0 0.00 0.17 0.00 94 1011.8
20260906062554 73 0.0 0.0 0.00 0.17 0.00 94 1011.9
20260906062057 73 0.0 0.0 0.00 0.17 0.00 94 1011.9
20260906061610 73 0.0 0.0 0.00 0.17 0.00 94 1012.0
20260906061054 73 0.0 0.0 0.00 0.17 0.00 94 1012.0
20260906060557 73 0.0 0.0 0.00 0.17 0.00 94 1012.0
20260906060114 73 0.0 0.0 0.00 0.17 0.00 94 1012.1
20260906055558 73 0.0 0.0 0.00 0.17 0.00 94 1012.1
20260906055054 73 0.0 0.0 0.00 0.17 0.00 94 1012.2
20260906054604 73 0.0 0.0 0.00 0.17 0.00 94 1012.3
20260906054055 73 0.0 0.0 0.00 0.17 0.00 93 1012.5
20260906053556 74 0.0 0.0 0.00 0.17 0.00 93 1012.4
20260906053110 74 0.0 0.0 0.00 0.17 0.00 93 1012.4
20260906052557 74 0.0 0.0 0.00 0.17 0.00 93 1012.4
20260906052055 74 0.0 0.0 0.00 0.17 0.00 93 1012.5
20260906051608 74 0.0 0.0 0.00 0.17 0.00 93 1012.5
20260906051100 74 0.0 0.0 0.00 0.17 0.00 93 1012.5
20260906050554 74 0.0 0.0 0.00 0.17 0.00 93 1012.5
20260906050136 74 0.0 0.0 0.00 0.17 0.00 93 1012.6
20260906045553 74 0.0 0.0 0.00 0.17 0.00 93 1012.6
20260906045054 73 0.0 0.0 0.01 0.17 0.00 93 1012.5
20260906044605 73 0.0 0.0 0.01 0.17 0.00 93 1012.7
20260906044058 73 0.0 0.0 0.02 0.17 0.00 93 1012.7
20260906043554 73 0.0 0.0 0.03 0.17 0.00 93 1012.5
20260906043107 73 0.0 0.0 0.09 0.17 0.00 92 1012.5
20260906042555 73 0.0 0.0 0.17 0.17 0.00 92 1012.4
20260906042054 73 0.0 0.0 0.17 0.17 0.00 92 1012.4
20260906041608 73 0.0 0.0 0.17 0.17 0.00 92 1012.5
20260906041055 73 0.0 0.0 0.17 0.17 0.00 92 1012.5
20260906040556 73 0.0 0.0 0.17 0.17 0.00 92 1012.6
20260906040139 73 0.0 0.0 0.17 0.17 0.00 91 1012.5
20260906035556 73 0.0 0.0 0.17 0.17 0.17 91 1012.4
20260906035059 74 0.0 0.0 0.16 0.16 0.16 90 1012.5
20260906034608 73 0.0 0.0 0.16 0.16 0.16 88 1012.4
20260906034054 74 0.0 0.0 0.15 0.15 0.15 86 1012.4
20260906033554 75 0.0 0.0 0.14 0.14 0.14 85 1012.4
20260906033104 77 0.0 0.0 0.08 0.08 0.08 82 1012.9
20260906032554 79 0.0 0.0 0.00 0.00 0.00 79 1013.0
20260906032054 78 0.0 0.0 0.00 0.00 0.00 81 1012.9
20260906031604 78 0.0 0.0 0.00 0.00 0.00 81 1013.1
20260906031054 78 0.0 0.0 0.00 0.00 0.00 81 1013.1
20260906030554 78 0.0 0.0 0.00 0.00 0.00 81 1013.1
20260906030109 78 0.0 0.0 0.00 0.00 0.00 81 1013.0
20260906025555 79 0.0 0.0 0.00 0.00 0.00 80 1013.2
20260906025055 79 0.0 0.0 0.00 0.00 0.00 80 1013.1
20260906024609 79 0.0 0.0 0.00 0.00 0.00 80 1012.9
20260906024057 79 0.0 0.0 0.00 0.00 0.00 79 1012.9
20260906023555 78 0.0 0.0 0.00 0.00 0.00 80 1013.0
20260906023108 78 0.0 0.0 0.00 0.00 0.00 80 1012.9
20260906022556 78 0.0 0.0 0.00 0.00 0.00 80 1012.8
20260906022054 79 0.0 0.0 0.00 0.00 0.00 79 1012.9
20260906021609 79 0.0 0.0 0.00 0.00 0.00 79 1012.9
20260906021054 79 0.0 0.0 0.00 0.00 0.00 79 1012.9
20260906020554 79 0.0 0.0 0.00 0.00 0.00 79 1012.9
20260906020111 79 0.0 0.0 0.00 0.00 0.00 78 1012.9
20260906015556 79 0.0 0.0 0.00 0.00 0.00 78 1012.7
20260906015056 79 0.0 0.0 0.00 0.00 0.00 79 1012.7
20260906014613 79 0.0 0.0 0.00 0.00 0.00 79 1012.9
20260906014054 79 0.0 0.0 0.00 0.00 0.00 78 1012.8
20260906013554 79 0.0 0.0 0.00 0.00 0.00 77 1012.7
20260906013108 79 0.0 0.0 0.00 0.00 0.00 79 1012.7
20260906012557 79 0.0 0.0 0.00 0.00 0.00 79 1012.6
20260906012053 79 0.0 0.0 0.00 0.00 0.00 79 1012.5
20260906011607 79 0.0 0.0 0.00 0.00 0.00 78 1012.4
20260906011058 80 0.0 0.0 0.00 0.00 0.00 78 1012.3
20260906010554 80 0.0 0.0 0.00 0.00 0.00 77 1012.3
20260906010110 80 0.0 0.0 0.00 0.00 0.00 77 1012.1
20260906005554 80 0.0 0.0 0.00 0.00 0.00 77 1012.2
20260906005054 80 0.0 0.0 0.00 0.00 0.00 77 1011.9
20260906004605 80 0.0 0.0 0.00 0.00 0.00 77 1011.6
20260906004054 80 0.0 0.0 0.00 0.00 0.00 77 1011.8
20260906003554 80 0.0 0.0 0.00 0.00 0.00 76 1011.9
20260906003107 80 0.0 0.0 0.00 0.00 0.00 76 1011.8
20260906002553 81 0.0 0.0 0.00 0.00 0.00 76 1011.7
20260906002054 81 0.0 0.0 0.00 0.00 0.00 76 1011.7
20260906001621 81 0.0 0.0 0.00 0.00 0.00 76 1011.8
20260906001054 82 0.0 0.0 0.00 0.00 0.00 75 1011.8
20260906000556 83 0.0 0.0 0.00 0.00 0.00 72 1011.9
20260906000108 84 0.0 0.0 0.00 0.00 0.00 68 1011.9
20260905235554 84 0.0 0.0 0.00 0.00 0.00 68 1011.9
20260905235054 84 0.0 0.0 0.00 0.00 0.00 68 1011.8
20260905234606 84 0.0 0.0 0.00 0.00 0.00 68 1011.8
20260905234054 84 0.0 0.0 0.00 0.00 0.00 67 1011.7
20260905233555 84 0.0 0.0 0.00 0.00 0.00 66 1011.9
20260905233113 84 0.0 0.0 0.00 0.00 0.00 66 1011.8
20260905232556 85 0.0 0.0 0.00 0.00 0.00 65 1012.1
20260905232054 85 0.0 0.0 0.00 0.00 0.00 65 1012.1
20260905231611 85 0.0 0.0 0.00 0.00 0.00 64 1011.9
20260905231057 85 0.0 0.0 0.00 0.00 0.00 64 1011.6
20260905230554 85 0.0 0.0 0.00 0.00 0.00 63 1011.6
20260905230113 86 0.0 0.0 0.00 0.00 0.00 63 1011.8
20260905225553 86 0.0 0.0 0.00 0.00 0.00 61 1011.6
20260905225054 86 0.0 0.0 0.00 0.00 0.00 60 1011.6
20260905224610 86 0.0 0.0 0.00 0.00 0.00 60 1011.6
20260905224054 87 0.0 0.0 0.00 0.00 0.00 62 1011.7
20260905223553 87 0.0 0.0 0.00 0.00 0.00 61 1011.5
20260905223108 88 0.0 0.0 0.00 0.00 0.00 60 1011.5
20260905222555 88 0.0 0.0 0.00 0.00 0.00 58 1011.3
20260905222053 89 0.0 0.0 0.00 0.00 0.00 58 1011.1
20260905221609 89 0.0 0.0 0.00 0.00 0.00 56 1011.0
20260905221054 90 0.0 0.0 0.00 0.00 0.00 55 1011.1
20260905220554 91 0.0 0.0 0.00 0.00 0.00 54 1011.0
20260905220107 94 0.0 0.0 0.00 0.00 0.00 50 1011.1
20260905215554 94 0.0 0.0 0.00 0.00 0.00 50 1010.7
20260905215054 94 0.0 0.0 0.00 0.00 0.00 48 1010.4
20260905214605 94 0.0 0.0 0.00 0.00 0.00 50 1010.1
20260905214056 95 0.0 0.0 0.00 0.00 0.00 50 1010.2
20260905213555 95 0.0 0.0 0.00 0.00 0.00 49 1010.2
20260905213110 94 0.0 0.0 0.00 0.00 0.00 48 1010.3
20260905212556 94 0.0 0.0 0.00 0.00 0.00 51 1010.4
20260905212053 95 0.0 0.0 0.00 0.00 0.00 49 1010.5
20260905211604 95 0.0 0.0 0.00 0.00 0.00 48 1010.5
20260905211054 95 0.0 0.0 0.00 0.00 0.00 47 1010.7
20260905210554 95 0.0 0.0 0.00 0.00 0.00 46 1010.8
20260905210110 96 0.0 0.0 0.00 0.00 0.00 47 1010.9
20260905205553 96 0.0 0.0 0.00 0.00 0.00 46 1011.0
20260905205056 95 0.0 0.0 0.00 0.00 0.00 47 1010.9
20260905204610 95 0.0 0.0 0.00 0.00 0.00 46 1010.9
20260905204056 95 0.0 0.0 0.00 0.00 0.00 48 1010.8
20260905203554 95 0.0 0.0 0.00 0.00 0.00 48 1010.8
20260905203107 95 0.0 0.0 0.00 0.00 0.00 50 1010.7
20260905202557 94 0.0 0.0 0.00 0.00 0.00 49 1010.7
20260905202053 94 0.0 0.0 0.00 0.00 0.00 51 1010.8
20260905201610 93 0.0 0.0 0.00 0.00 0.00 54 1011.0
20260905201055 93 0.0 0.0 0.00 0.00 0.00 53 1010.9
20260905200555 93 0.0 0.0 0.00 0.00 0.00 53 1011.0
20260905200152 94 0.0 0.0 0.00 0.00 0.00 51 1011.1
20260905195558 95 0.0 0.0 0.00 0.00 0.00 52 1011.3
20260905195054 94 0.0 0.0 0.00 0.00 0.00 53 1011.3
20260905194621 94 0.0 0.0 0.00 0.00 0.00 52 1011.3
20260905194054 95 0.0 0.0 0.00 0.00 0.00 52 1011.4
20260905193554 95 0.0 0.0 0.00 0.00 0.00 51 1011.3
20260905193106 95 0.0 0.0 0.00 0.00 0.00 52 1011.4
20260905192554 95 0.0 0.0 0.00 0.00 0.00 51 1011.4
20260905192056 95 0.0 0.0 0.00 0.00 0.00 53 1011.5
20260905191605 95 0.0 0.0 0.00 0.00 0.00 51 1011.5
20260905191057 95 0.0 0.0 0.00 0.00 0.00 53 1011.6
20260905190556 95 0.0 0.0 0.00 0.00 0.00 51 1011.7
20260905190104 95 0.0 0.0 0.00 0.00 0.00 53 1011.7
20260905185554 95 0.0 0.0 0.00 0.00 0.00 53 1011.7
20260905185055 95 0.0 0.0 0.00 0.00 0.00 52 1011.8
20260905184612 95 0.0 0.0 0.00 0.00 0.00 52 1012.0
20260905184054 95 0.0 0.0 0.00 0.00 0.00 53 1012.0
20260905183555 95 0.0 0.0 0.00 0.00 0.00 52 1012.1
20260905183113 95 0.0 0.0 0.00 0.00 0.00 51 1012.3
20260905182555 95 0.0 0.0 0.00 0.00 0.00 51 1012.2
20260905182056 95 0.0 0.0 0.00 0.00 0.00 52 1012.3
20260905181608 94 0.0 0.0 0.00 0.00 0.00 52 1012.4
20260905181053 95 0.0 0.0 0.00 0.00 0.00 52 1012.5
20260905180556 94 0.0 0.0 0.00 0.00 0.00 54 1012.5
20260905180112 94 0.0 0.0 0.00 0.00 0.00 52 1012.6
20260905175554 95 0.0 0.0 0.00 0.00 0.00 52 1012.5
20260905175055 95 0.0 0.0 0.00 0.00 0.00 55 1012.7
20260905174608 95 0.0 0.0 0.00 0.00 0.00 54 1012.8
20260905174056 94 0.0 0.0 0.00 0.00 0.00 54 1012.8
20260905173555 95 0.0 0.0 0.00 0.00 0.00 55 1012.9
20260905173107 95 0.0 0.0 0.00 0.00 0.00 56 1013.0
20260905172556 95 0.0 0.0 0.00 0.00 0.00 56 1013.1
20260905172056 94 0.0 0.0 0.00 0.00 0.00 54 1013.1
20260905171608 94 0.0 0.0 0.00 0.00 0.00 54 1013.1
20260905171055 92 0.0 0.0 0.00 0.00 0.00 59 1013.2
20260905170556 92 0.0 0.0 0.00 0.00 0.00 57 1013.2
20260905170107 93 0.0 0.0 0.00 0.00 0.00 57 1013.3
20260905165556 93 0.0 0.0 0.00 0.00 0.00 57 1013.3
20260905165056 94 0.0 0.0 0.00 0.00 0.00 55 1013.6
20260905164609 94 0.0 0.0 0.00 0.00 0.00 55 1013.7
20260905164053 94 0.0 0.0 0.00 0.00 0.00 57 1013.7
20260905163553 93 0.0 0.0 0.00 0.00 0.00 58 1013.7
20260905163113 93 0.0 0.0 0.00 0.00 0.00 56 1013.9
20260905162555 92 0.0 0.0 0.00 0.00 0.00 56 1014.0
20260905162055 92 0.0 0.0 0.00 0.00 0.00 60 1014.1
20260905161615 91 0.0 0.0 0.00 0.00 0.00 59 1014.3
20260905161055 91 0.0 0.0 0.00 0.00 0.00 59 1014.3
20260905160559 91 0.0 0.0 0.00 0.00 0.00 60 1014.4
20260905160105 91 0.0 0.0 0.00 0.00 0.00 61 1014.4
20260905155554 92 0.0 0.0 0.00 0.00 0.00 63 1014.5
20260905155054 90 0.0 0.0 0.00 0.00 0.00 61 1014.5
20260905154606 90 0.0 0.0 0.00 0.00 0.00 63 1014.6
20260905154057 90 0.0 0.0 0.00 0.00 0.00 62 1014.5
20260905153553 90 0.0 0.0 0.00 0.00 0.00 63 1014.7
20260905153108 90 0.0 0.0 0.00 0.00 0.00 66 1014.7
20260905152556 90 0.0 0.0 0.00 0.00 0.00 68 1014.7
20260905152056 89 0.0 0.0 0.00 0.00 0.00 67 1014.6
20260905151610 88 0.0 0.0 0.00 0.00 0.00 67 1014.6
20260905151053 88 0.0 0.0 0.00 0.00 0.00 68 1014.6
20260905150553 88 0.0 0.0 0.00 0.00 0.00 69 1014.7
20260905150108 89 0.0 0.0 0.00 0.00 0.00 70 1014.7
20260905145555 88 0.0 0.0 0.00 0.00 0.00 75 1014.9
20260905145055 86 0.0 0.0 0.00 0.00 0.00 73 1014.9
20260905144607 85 0.0 0.0 0.00 0.00 0.00 75 1015.0
20260905144056 86 0.0 0.0 0.00 0.00 0.00 74 1015.1
20260905143556 86 0.0 0.0 0.00 0.00 0.00 75 1015.1
20260905143109 86 0.0 0.0 0.00 0.00 0.00 76 1015.2
20260905142556 85 0.0 0.0 0.00 0.00 0.00 74 1015.1
20260905142056 85 0.0 0.0 0.00 0.00 0.00 75 1015.1
20260905141607 84 0.0 0.0 0.00 0.00 0.00 77 1015.2
20260905141053 83 0.0 0.0 0.00 0.00 0.00 78 1015.2
20260905140557 83 0.0 0.0 0.00 0.00 0.00 79 1015.3
20260905140109 82 0.0 0.0 0.00 0.00 0.00 81 1015.3
20260905135553 82 0.0 0.0 0.00 0.00 0.00 81 1015.3
20260905135054 81 0.0 0.0 0.00 0.00 0.00 82 1015.3
20260905134615 80 0.0 0.0 0.00 0.00 0.00 85 1015.3
20260905134056 80 0.0 0.0 0.00 0.00 0.00 86 1015.2
20260905133555 79 0.0 0.0 0.00 0.00 0.00 87 1015.3
20260905133106 79 0.0 0.0 0.00 0.00 0.00 88 1015.3
20260905132556 78 0.0 0.0 0.00 0.00 0.00 90 1015.3
20260905132055 77 0.0 0.0 0.00 0.00 0.00 92 1015.4
20260905131611 76 0.0 0.0 0.00 0.00 0.00 93 1015.5
20260905131055 75 0.0 0.0 0.00 0.00 0.00 93 1015.5
20260905130558 75 0.0 0.0 0.00 0.00 0.00 94 1015.7
20260905130112 75 0.0 0.0 0.00 0.00 0.00 94 1015.7
20260905125601 74 0.0 0.0 0.00 0.00 0.00 94 1015.7
20260905125053 74 0.0 0.0 0.00 0.00 0.00 94 1015.7
20260905124608 74 0.0 0.0 0.00 0.00 0.00 95 1015.6
20260905124053 74 0.0 0.0 0.00 0.00 0.00 94 1015.6
20260905123556 73 0.0 0.0 0.00 0.00 0.00 95 1015.6
20260905123108 73 0.0 0.0 0.00 0.00 0.00 95 1015.5
20260905122556 73 0.0 0.0 0.00 0.00 0.00 95 1015.5
20260905122057 73 0.0 0.0 0.00 0.00 0.00 94 1015.4
20260905121609 73 0.0 0.0 0.00 0.00 0.00 95 1015.3
20260905121056 73 0.0 0.0 0.00 0.00 0.00 95 1015.3
20260905120555 73 0.0 0.0 0.00 0.00 0.00 95 1015.3
20260905120108 73 0.0 0.0 0.00 0.00 0.00 95 1015.2
20260905115553 72 0.0 0.0 0.00 0.00 0.00 94 1015.2
20260905115058 72 0.0 0.0 0.00 0.00 0.00 94 1015.1
20260905114613 72 0.0 0.0 0.00 0.00 0.00 94 1015.1
20260905114053 72 0.0 0.0 0.00 0.00 0.00 94 1015.1
20260905113556 72 0.0 0.0 0.00 0.00 0.00 94 1015.2
20260905113109 72 0.0 0.0 0.00 0.00 0.00 94 1015.0
20260905112556 72 0.0 0.0 0.00 0.00 0.00 94 1015.0
20260905112058 72 0.0 0.0 0.00 0.00 0.00 94 1014.9
20260905111615 73 0.0 0.0 0.00 0.00 0.00 94 1015.0
20260905111056 72 0.0 0.0 0.00 0.00 0.00 94 1014.9
20260905110558 73 0.0 0.0 0.00 0.00 0.00 94 1014.9
20260905110105 73 0.0 0.0 0.00 0.00 0.00 94 1014.7
20260905105557 73 0.0 0.0 0.00 0.00 0.00 94 1014.7
20260905105057 73 0.0 0.0 0.00 0.00 0.00 94 1014.6
20260905104603 73 0.0 0.0 0.00 0.00 0.00 94 1014.5
20260905104056 73 0.0 0.0 0.00 0.00 0.00 94 1014.5
20260905103556 73 0.0 0.0 0.00 0.00 0.00 94 1014.6
20260905103107 73 0.0 0.0 0.00 0.00 0.00 94 1014.4
20260905102556 73 0.0 0.0 0.00 0.00 0.00 93 1014.4
20260905102056 73 0.0 0.0 0.00 0.00 0.00 93 1014.5
20260905101606 73 0.0 0.0 0.00 0.00 0.00 93 1014.5
20260905101056 73 0.0 0.0 0.00 0.00 0.00 93 1014.3
20260905100558 73 0.0 0.0 0.00 0.00 0.00 93 1014.3
20260905100108 73 0.0 0.0 0.00 0.00 0.00 93 1014.4
20260905095555 73 0.0 0.0 0.00 0.00 0.00 93 1014.3
20260905095056 73 0.0 0.0 0.00 0.00 0.00 93 1014.2
20260905094613 73 0.0 0.0 0.00 0.00 0.00 93 1014.3
20260905094057 73 0.0 0.0 0.00 0.00 0.00 93 1014.3
20260905093556 73 0.0 0.0 0.00 0.00 0.00 93 1014.3
20260905093106 73 0.0 0.0 0.00 0.00 0.00 93 1014.3
20260905092556 73 0.0 0.0 0.00 0.00 0.00 93 1014.3
20260905092056 73 0.0 0.0 0.00 0.00 0.00 93 1014.3
20260905091609 73 0.0 0.0 0.00 0.00 0.00 93 1014.3